User: anonymous   Login
Location: Pel�-Koumbol�
(14.9505°N, 3.0798°W)
Time: 05:55:24
(UTC+00:00)
Language:

GPS 2-14 Rocket1 - Orbit

View from above orbital plane
View from above orbital plane
View from above satellite
View from above satellite

Ground track
Ground track

The orbit data is extracted from the following two-line orbital elements,

1 22015U 92039B   20151.27418585 +.00001014 +00000-0 +20999-4 0  9991
2 22015 020.7133 183.6111 0047553 150.0620 210.2551 15.18904139554468
Epoch (UTC): 30 May 2020 06:34:49
Eccentricity: 0.0047553
inclination: 20.7133°
perigee height: 476 km
apogee height: 542 km
right ascension of ascending node: 183.6111°
argument of perigee: 150.0620°
revolutions per day: 15.18904139
mean anomaly at epoch: 210.2551°
orbit number at epoch: 55446

The dashed part of the orbit path shows where the satellite is in the earth's shadow,  

DLR